Tracking 32968 objects as of 18-Jan-2026
HD Live streaming from Space Station
objects crossing your sky now

CHUANG XIN 1 (CZ-1)

Track CHUANG XIN 1 (CZ-1) now!
10-day predictions
CHUANG XIN 1 (CZ-1) is classified as:


NORAD ID: 28058
Int'l Code: 2003-049B
Perigee: 729.7 km
Apogee: 745.8 km
Inclination: 98.5 °
Period: 99.4 minutes
Semi major axis: 7108 km
RCS: 0.5789 m2 (medium)
Launch date: October 21, 2003
Source: People's Republic of China (PRC)
Launch site: Taiyaun Space Center, China (TSC)

Prototype of advanced telecommunications satellite for LEO.
Your satellite tracking list
Your tracking list is empty




NASA's NSSDC Master Catalog

Two Line Element Set (TLE):
1 28058U 03049B   26017.66015585  .00000226  00000-0  72324-4 0  9993
2 28058  98.5241 275.5094 0011376 281.4026  78.5889 14.48485109174480
Source of the keplerian elements: AFSPC